Le nostre stazioni meteo in Italia

Pubblicità
Il mio iltempo24.it
Uccle, Belgio (6447): Temperatura & dewpoint: 08.11.2019 10:00:00 - 14.11.2019 10:00:00 (CET)Uccle, Belgio (6447): velocità del vento & gusts: 08.11.2019 10:00:00 - 14.11.2019 10:00:00 (CET)Uccle, Belgio (6447): direzione del vento: 08.11.2019 10:00:00 - 14.11.2019 10:00:00 (CET)Uccle, Belgio (6447): reduced air pressure: 08.11.2019 10:00:00 - 14.11.2019 10:00:00 (CET)Uccle, Belgio (6447): ore di luce: 08.11.2019 10:00:00 - 14.11.2019 10:00:00 (CET)Uccle, Belgio (6447): precipitazioni: 08.11.2019 10:00:00 - 14.11.2019 10:00:00 (CET)
Data & Tempo tt [°C] td [°C] ff [km/h] ff [kn] fx [km/h] fx [kn] dd ppp [hPa] sd [min] rr [mm]
14.11.2019 10:00:00 5,0 3,4 18 10 36 19 SE 998,4 0 0,0
14.11.2019 09:00:00 5,0 3,2 24 13 46 25 SE 997,5 0 0,4
14.11.2019 08:00:00 5,7 2,4 23 13 45 24 SE 996,6 0 0,0
14.11.2019 07:00:00 5,6 2,6 22 12 43 23 SE 996,2 0 0,0
14.11.2019 06:00:00 5,3 3,0 21 11 38 20 SE 995,7 0 0,0
14.11.2019 05:00:00 5,0 3,2 15 8 36 19 ESE 995,5 0 0,0
14.11.2019 04:00:00 4,9 3,2 22 12 35 19 SE 996,0 0 0,0
14.11.2019 03:00:00 4,6 3,2 19 10 29 16 SE 996,9 0 0,0
14.11.2019 02:00:00 4,6 3,4 16 8 32 17 SSE 997,6 0 0,0
14.11.2019 01:00:00 4,6 3,6 18 10 27 15 SSE 997,8 0 0,0
14.11.2019 00:00:00 5,1 4,1 16 9 29 16 SSE 998,3 0 0,0
13.11.2019 23:00:00 5,5 4,5 18 10 29 16 SSE 998,8 0 0,0
13.11.2019 22:00:00 5,4 4,5 18 10 29 16 SSE 999,3 0 0,0
13.11.2019 21:00:00 5,7 4,8 18 10 25 14 SSE 999,8 0 0,0
13.11.2019 20:00:00 5,7 4,8 17 9 26 14 SSE 1000,1 0 0,0
13.11.2019 19:00:00 5,9 4,4 7 4 31 17 SO 1000,7 0 2,0
13.11.2019 18:00:00 7,1 4,9 15 8 27 15 S 1000,7 0 0,0
13.11.2019 17:00:00 7,2 4,5 11 6 22 12 S 1000,6 15 0,0
13.11.2019 16:00:00 8,0 4,5 14 8 29 16 SSO 1000,7 8 0,0
13.11.2019 15:00:00 8,5 4,9 16 8 29 16 SSO 1001,0 3 0,0
13.11.2019 14:00:00 8,0 5,4 12 7 23 12 SSO 1001,2 1 0,0
13.11.2019 13:00:00 7,4 5,6 11 6 22 12 SO 1001,4 0 0,0
13.11.2019 12:00:00 7,3 5,5 9 5 23 13 SO 1001,6 0 0,0
13.11.2019 11:00:00 6,8 5,5 9 5 26 14 SO 1001,6 0 0,1
13.11.2019 10:00:00 6,1 5,1 10 5 21 11 SO 1001,4 1 0,0
13.11.2019 09:00:00 5,6 4,8 9 5 27 14 SO 1000,8 0 0,1
13.11.2019 08:00:00 5,4 4,6 9 5 25 14 SO 1000,4 0 0,0
13.11.2019 07:00:00 5,4 4,6 11 6 21 12 SSO 1000,2 0 0,1
13.11.2019 06:00:00 5,5 4,7 11 6 25 13 SSO 999,9 0 0,0
13.11.2019 05:00:00 5,4 4,6 13 7 29 16 SSO 999,5 0 0,4
13.11.2019 04:00:00 5,0 4,1 11 6 28 15 SSO 999,2 0 0,4
13.11.2019 03:00:00 5,0 3,8 13 7 28 15 SO 999,1 0 0,0
13.11.2019 02:00:00 4,8 3,4 17 9 31 17 SSO 998,9 0 0,0
13.11.2019 01:00:00 4,6 2,9 18 10 36 19 SSO 999,1 0 0,0
13.11.2019 00:00:00 4,7 2,6 18 10 37 20 SSO 999,1 0 0,0
12.11.2019 23:00:00 4,9 2,2 21 12 42 23 SSO 999,6 0 0,0
12.11.2019 22:00:00 4,9 1,9 18 10 44 24 SSO 999,4 0 0,0
12.11.2019 21:00:00 4,5 2,0 20 11 46 25 S 999,4 0 0,0
12.11.2019 20:00:00 4,3 2,1 22 12 44 24 S 999,2 0 0,0
12.11.2019 19:00:00 4,5 2,3 22 12 37 20 S 999,7 0 0,0
12.11.2019 18:00:00 5,1 2,5 19 10 41 22 SSO 999,8 0 0,0
12.11.2019 17:00:00 5,7 2,6 21 11 40 21 SSO 1000,1 46 0,0
12.11.2019 16:00:00 6,2 2,6 19 10 45 24 SSO 1000,1 44 0,0
12.11.2019 15:00:00 6,7 2,9 23 12 43 23 SSO 1000,1 28 0,0
12.11.2019 14:00:00 6,6 3,4 18 10 42 23 SO 1000,3 11 0,0
12.11.2019 13:00:00 6,3 3,3 21 12 40 22 SO 1000,6 34 0,0
12.11.2019 12:00:00 5,1 2,9 18 10 37 20 SO 1000,9 5 0,0
12.11.2019 11:00:00 4,4 2,8 18 10 35 19 SSO 1000,8 0 0,0
12.11.2019 10:00:00 3,4 2,1 14 7 26 14 SSO 1001,1 0 0,0
12.11.2019 09:00:00 3,2 2,0 20 11 33 18 S 1000,5 0 0,1
12.11.2019 08:00:00 4,1 2,4 19 10 43 23 SO 1001,0 0 0,0
12.11.2019 07:00:00 4,5 2,7 22 12 34 19 SSO 1001,1 0 0,0
12.11.2019 06:00:00 4,3 2,6 19 10 36 20 SSO 1001,1 0 0,0
12.11.2019 05:00:00 4,1 2,6 16 9 31 17 SSO 1001,7 0 0,0
12.11.2019 04:00:00 4,2 2,7 13 7 31 17 SSO 1002,0 0 0,0
12.11.2019 03:00:00 4,4 2,7 15 8 35 19 SSO 1002,5 0 0,0
12.11.2019 02:00:00 4,4 2,8 18 10 43 23 SSO 1002,5 0 0,2
12.11.2019 01:00:00 4,9 3,2 22 12 37 20 SSO 1002,7 0 0,0
12.11.2019 00:00:00 4,7 3,2 16 9 34 19 SSO 1002,8 0 0,0
11.11.2019 23:00:00 4,7 3,0 14 8 30 16 SSO 1002,7 0 0,0
11.11.2019 22:00:00 4,8 3,5 15 8 29 16 SO 1002,7 0 0,0
11.11.2019 21:00:00 5,0 3,8 12 6 27 15 SO 1002,5 0 0,0
11.11.2019 20:00:00 5,1 4,0 16 9 26 14 SO 1002,4 0 0,0
11.11.2019 19:00:00 4,9 3,9 11 6 23 12 SO 1002,4 0 0,0
11.11.2019 18:00:00 5,9 4,9 11 6 26 14 SO 1001,8 0 0,9
11.11.2019 17:00:00 6,3 5,4 14 7 25 13 SO 1001,3 0 0,0
11.11.2019 16:00:00 5,9 5,1 11 6 34 18 SO 1001,1 0 0,6
11.11.2019 15:00:00 5,5 4,6 21 11 50 27 S 1001,1 0 1,1
11.11.2019 14:00:00 5,4 4,2 23 12 56 31 S 1001,4 0 1,1
11.11.2019 13:00:00 5,9 4,5 22 12 49 26 S 1002,0 0 0,9
11.11.2019 12:00:00 6,4 3,6 28 15 57 31 S 1003,0 0 0,0
11.11.2019 11:00:00 6,7 3,8 22 12 50 27 SSO 1003,7 0 0,0
11.11.2019 10:00:00 6,7 3,9 26 14 50 27 S 1004,1 36 0,0
11.11.2019 09:00:00 5,9 3,9 21 11 45 24 S 1004,9 17 0,0
11.11.2019 08:00:00 5,7 4,0 20 11 29 16 S 1006,2 0 0,0
11.11.2019 07:00:00 5,5 4,0 14 8 29 16 S 1007,3 0 0,0
11.11.2019 06:00:00 5,5 3,8 19 10 32 18 S 1007,9 0 0,0
11.11.2019 05:00:00 5,5 4,2 20 11 29 15 SSE 1009,3 0 0,0
11.11.2019 04:00:00 5,0 3,8 18 10 28 15 SSE 1010,8 0 0,0
11.11.2019 03:00:00 4,8 3,5 16 9 25 14 SSE 1011,6 0 0,0
11.11.2019 02:00:00 4,5 3,2 18 10 27 14 SSE 1012,3 0 0,0
11.11.2019 01:00:00 4,0 2,8 14 8 24 13 SSE 1013,1 0 0,0
11.11.2019 00:00:00 3,7 2,4 16 9 26 14 S 1013,3 0 0,0
10.11.2019 23:00:00 3,9 2,8 15 8 22 12 S 1013,5 0 0,0
10.11.2019 22:00:00 2,6 1,9 8 5 15 8 SSE 1013,8 0 0,0
10.11.2019 21:00:00 2,8 2,0 11 6 13 7 SE 1013,7 0 0,0
10.11.2019 20:00:00 3,1 1,9 5 3 6 4 ESE 1014,5 0 0,0
10.11.2019 19:00:00 4,1 2,7 4 2 8 4 ESE 1014,4 0 0,0
10.11.2019 18:00:00 5,6 3,1 5 3 13 7 ESE 1014,2 0 0,0
10.11.2019 17:00:00 7,0 3,1 6 3 10 6 E 1013,7 59 0,0
10.11.2019 16:00:00 9,2 3,5 8 4 12 7 NE 1013,1 60 0,0
10.11.2019 15:00:00 10,3 3,5 6 4 13 7 E 1012,3 60 0,0
10.11.2019 14:00:00 9,5 3,9 5 3 14 8 ESE 1012,1 60 0,0
10.11.2019 13:00:00 8,6 3,6 7 4 14 8 E 1012,1 60 0,0
10.11.2019 12:00:00 8,1 4,3 6 3 19 11 ESE 1011,9 60 0,0
10.11.2019 11:00:00 5,5 3,1 8 5 18 10 E 1011,8 60 0,0
10.11.2019 10:00:00 3,4 2,5 8 5 16 9 E 1011,1 60 0,0
10.11.2019 09:00:00 1,1 0,5 8 4 15 8 E 1010,4 32 0,0
10.11.2019 08:00:00 0,9 0,3 8 4 15 8 E 1009,7 0 0,0
10.11.2019 07:00:00 1,0 0,3 7 4 16 9 ESE 1008,6 0 0,0
10.11.2019 06:00:00 1,3 0,7 9 5 18 10 E 1007,9 0 0,0
10.11.2019 05:00:00 1,3 0,6 9 5 19 10 ESE 1007,5 0 0,0
10.11.2019 04:00:00 2,0 1,2 10 6 23 12 ESE 1007,0 0 0,0
10.11.2019 03:00:00 2,4 1,6 12 7 21 12 SE 1007,0 0 0,0
10.11.2019 02:00:00 2,2 1,5 13 7 21 11 ESE 1006,7 0 0,0
10.11.2019 01:00:00 2,5 1,7 14 8 20 11 SE 1006,7 0 0,0
10.11.2019 00:00:00 2,6 1,8 16 9 21 11 SE 1006,5 0 0,0
09.11.2019 23:00:00 2,8 1,9 11 6 17 9 SE 1006,6 0 0,0
09.11.2019 22:00:00 3,3 2,2 13 7 22 12 SSE 1006,6 0 0,0
09.11.2019 21:00:00 3,8 2,5 14 8 23 13 SSE 1006,6 0 0,0
09.11.2019 20:00:00 4,0 2,6 15 8 21 11 SSE 1006,5 0 0,0
09.11.2019 19:00:00 4,3 2,6 11 6 16 9 SSE 1006,6 0 0,0
09.11.2019 18:00:00 5,3 3,1 11 6 20 11 S 1006,7 0 0,0
09.11.2019 17:00:00 6,7 3,6 13 7 25 13 S 1006,8 28 0,0
09.11.2019 16:00:00 7,8 3,8 9 5 28 15 SSO 1006,9 39 0,0
09.11.2019 15:00:00 8,5 3,8 15 8 29 16 SSO 1007,2 37 0,0
09.11.2019 14:00:00 7,5 3,9 14 8 32 17 SSO 1007,6 34 0,0
09.11.2019 13:00:00 7,8 5,1 14 8 31 17 SSO 1007,9 20 0,0
09.11.2019 12:00:00 6,7 4,7 13 7 31 17 SO 1008,7 1 0,0
09.11.2019 11:00:00 6,1 4,8 18 10 34 18 SO 1009,0 14 0,0
09.11.2019 10:00:00 5,5 4,8 10 5 30 16 SO 1009,0 0 0,0
09.11.2019 09:00:00 5,0 4,4 13 7 27 14 SO 1009,0 0 0,0
09.11.2019 08:00:00 4,8 4,2 13 7 25 13 SSO 1008,7 0 0,0
09.11.2019 07:00:00 5,0 4,4 11 6 25 13 SO 1008,7 0 0,1
09.11.2019 06:00:00 5,2 4,7 12 7 26 14 SO 1008,7 0 0,7
09.11.2019 05:00:00 5,0 4,5 8 5 26 14 SO 1008,6 0 0,0
09.11.2019 04:00:00 4,7 4,2 11 6 25 13 SO 1008,9 0 0,0
09.11.2019 03:00:00 4,8 4,3 11 6 21 11 SO 1008,7 0 0,0
09.11.2019 02:00:00 4,6 4,0 7 4 16 9 S 1008,7 0 0,0
09.11.2019 01:00:00 4,4 3,8 7 4 14 8 SSO 1008,7 0 0,7
09.11.2019 00:00:00 3,9 3,3 5 3 14 7 SO 1008,7 0 0,0
08.11.2019 23:00:00 3,5 2,9 8 4 13 7 SSO 1008,8 0 0,0
08.11.2019 22:00:00 3,5 2,9 7 4 10 6 SSO 1008,6 0 0,0
08.11.2019 21:00:00 3,8 3,0 7 4 11 6 SSO 1008,2 0 0,0
08.11.2019 20:00:00 4,4 3,4 6 4 11 6 SO 1007,9 0 0,0
08.11.2019 19:00:00 5,1 3,8 7 4 10 5 O 1007,8 0 0,0
08.11.2019 18:00:00 6,1 4,2 7 4 10 5 O 1007,4 0 0,0
08.11.2019 17:00:00 7,5 4,6 4 2 13 7 SO 1007,0 35 0,0
08.11.2019 16:00:00 8,8 5,0 7 4 16 9 SO 1006,2 57 0,0
08.11.2019 15:00:00 9,4 5,3 5 3 14 8 OSO 1005,6 55 0,0
08.11.2019 14:00:00 8,8 5,0 8 5 16 8 SO 1005,4 60 0,0
08.11.2019 13:00:00 8,9 5,1 11 6 19 11 OSO 1005,3 52 0,0
08.11.2019 12:00:00 8,0 4,6 7 4 16 9 SSO 1005,6 59 0,0
08.11.2019 11:00:00 7,1 4,3 8 4 17 9 SSO 1005,4 60 0,0
08.11.2019 10:00:00 5,3 3,3 10 5 21 11 SSE 1005,1 60 0,0

tt = Temperatura
td = dewpoint
ff = velocità del vento
fx = gusts
dd = direzione del vento
ppp = reduced air pressure
sd = ore di luce
rr = precipitazioni

Stazioni seguenti

WeatherPro
AMSI
MeteoEarth